Weather History for Erzincan, Turkey

Change the Weather History Date:

Friday, November 23, 2012

  Actual Average Record
Temperature  
Mean Temperature 44 °F -  
Max Temperature 53 °F 43 °F - ()
Min Temperature 35 °F 28 °F - ()
Degree Days  
Heating Degree Days 21    
Moisture  
Dew Point 40 °F    
Average Humidity 85    
Maximum Humidity 100    
Minimum Humidity 47    
Precipitation  
Precipitation 0.00 in 0.04 in - ()
Sea Level Pressure  
Sea Level Pressure 30.10 in    
Wind  
Wind Speed 1 mph ()    
Max Wind Speed 6 mph    
Max Gust Speed -    
Visibility 5.1 miles    
Events Fog    
T = Trace of Precipitation, MM = Missing Value Source: Averaged Metar Reports

Daily Weather History Graph

Daily Weather History Graph

Search for Another Location

Airport:

Trip Planner

Search our weather history database for the weather conditions in past years. The results will help you decide how hot, cold, wet, or windy it might be!

Date:

Astronomy

Nov. 23, 2012 Rise Set
Actual Time 6:15 AM EET 4:00 PM EET
Civil Twilight 5:46 AM EET 4:30 PM EET
Nautical Twilight 5:13 AM EET 5:03 PM EET
Astronomical Twilight 4:40 AM EET 5:35 PM EET
Moon 1:04 PM EET (11/23) 1:14 AM EET (11/23)
Length of Visible Light 10h 44m
Length of Day
9h 45m
Waxing Gibbous, 77% of the Moon is Illuminated
Nov 23
Waxing Gibbous
Nov 28
Full
Dec 6
Last Quarter
Dec 13
New
Dec 20
First Quarter

Hourly Weather History & Observations

Time (EET) Temp. Windchill Dew Point Humidity Pressure Visibility Wind Dir Wind Speed Gust Speed Precip Events Conditions
12:50 AM 39.2 °F - 39.2 °F 100% 30.12 in 2.5 mi West 2.3 mph - N/A   Mostly Cloudy
1:50 AM 41.0 °F - 41.0 °F 100% 30.12 in - Calm Calm - N/A   Mostly Cloudy
2:00 AM 40 °F - 40 °F 100%  in 6 mi Calm Calm - -   Mist
2:50 AM 39.2 °F - 39.2 °F 100% 30.12 in - Variable 2.3 mph - N/A   Mostly Cloudy
3:50 AM 39.2 °F - 39.2 °F 100% 30.09 in - Variable 1.2 mph - N/A   Mostly Cloudy
4:50 AM 39.2 °F - 39.2 °F 100% 30.09 in 1.2 mi Variable 1.2 mph - N/A   Scattered Clouds
6:50 AM 37.4 °F - 37.4 °F 100% 30.12 in 0.1 mi Calm Calm - N/A Fog Fog
7:50 AM 37.4 °F - 37.4 °F 100% 30.12 in 0.1 mi Calm Calm - N/A Fog Fog
8:00 AM 38 °F - 38 °F 98%  in 0 mi Calm Calm - - Fog Heavy Fog
8:50 AM 39.2 °F - 39.2 °F 100% 30.12 in - Calm Calm - N/A Fog Fog
9:50 AM 44.6 °F - 42.8 °F 93% 30.12 in 6.2 mi Variable 1.2 mph - N/A   Mostly Cloudy
10:50 AM 48.2 °F - 42.8 °F 82% 30.09 in 3.7 mi Calm Calm - N/A   Mostly Cloudy
11:50 AM 50.0 °F - 39.2 °F 66% 30.09 in 5.0 mi Calm Calm - N/A   Mostly Cloudy
12:50 PM 51.8 °F - 39.2 °F 62% 30.09 in 6.2 mi East 3.5 mph - N/A   Mostly Cloudy
1:50 PM 53.6 °F - 39.2 °F 58% 30.09 in 6.2 mi South 5.8 mph - N/A   Mostly Cloudy
2:00 PM 53 °F - 39 °F 47%  in 12 mi South 5.8 mph - -   Mostly Cloudy
2:50 PM 51.8 °F - 41.0 °F 67% 30.09 in 6.2 mi North 3.5 mph - N/A   Mostly Cloudy
3:50 PM 51.8 °F - 41.0 °F 67% 30.09 in 6.2 mi North 2.3 mph - N/A   Mostly Cloudy
4:50 PM 48.2 °F - 41.0 °F 76% 30.09 in 6.2 mi West 4.6 mph - N/A   Mostly Cloudy
5:50 PM 46.4 °F - 41.0 °F 81% 30.09 in 6.2 mi WNW 2.3 mph - N/A   Mostly Cloudy
6:50 PM 46.4 °F - 41.0 °F 81% 30.09 in 6.2 mi Calm Calm - N/A   Mostly Cloudy
7:50 PM 44.6 °F - 41.0 °F 87% 30.09 in 6.2 mi Calm Calm - N/A   Mostly Cloudy
8:00 PM 44 °F - 40 °F 81%  in 6 mi Calm Calm - -   Partly Cloudy
8:50 PM 42.8 °F - 41.0 °F 93% 30.09 in 6.2 mi Calm Calm - N/A   Mostly Cloudy
9:50 PM 42.8 °F - 41.0 °F 93% 30.09 in 6.2 mi Variable 2.3 mph - N/A   Mostly Cloudy
10:50 PM 44.6 °F 43.1 °F 39.2 °F 81% 30.09 in 6.2 mi Variable 3.5 mph - N/A   Mostly Cloudy
11:50 PM 42.8 °F 41.1 °F 39.2 °F 87% 30.09 in 6.2 mi NW 3.5 mph - N/A   Mostly Cloudy